Simultaneous Nadir Overpasses (SNOs) Predictions

Prediction of SNOs between METOP-B and NOAA-19 Satellite Orbit:

Table of predicted SNOs for the next 14.0 days since TLE Epoch: 1/19/2018
Index Date (METOP-B) Time (METOP-B) Lat,Lon (METOP-B) SZA (METOP-B ) Date (NOAA-19) Time (NOAA-19) Lat,Lon (NOAA-19) SZA (NOAA-19 ) Distance(km) Time Diff (sec)
1 01/27/2018 10:03:27 -77.97,-142.82 83.65 01/27/2018 10:02:22 -77.93,-142.80 83.69 3.86 65
2 01/27/2018 10:54:07 77.95, 24.45 96.33 01/27/2018 10:53:18 77.94, 24.41 96.32 1.66 49
3 01/27/2018 11:44:49 -77.95,-168.25 83.69 01/27/2018 11:44:23 -77.92,-168.23 83.72 3.27 26
4 01/27/2018 12:35:29 77.94, -0.97 96.29 01/27/2018 12:35:19 77.93, -1.02 96.29 1.39 10
5 01/27/2018 13:26:11 -77.93, 166.32 83.73 01/27/2018 13:26:24 -77.91, 166.33 83.75 2.70 13
6 01/27/2018 14:16:51 77.92, -26.40 96.26 01/27/2018 14:17:20 77.92, -26.46 96.26 1.38 29
7 01/27/2018 15:07:33 -77.91, 140.90 83.76 01/27/2018 15:08:25 -77.89, 140.90 83.78 2.13 52
8 01/27/2018 15:58:13 77.90, -51.83 96.22 01/27/2018 15:59:21 77.91, -51.90 96.23 1.65 68




NCC Satellite Simultaneous Nadir Overpasses (SNOs) Prediction Service
